sat.trackr.live / text

‹ back to catalog

STARLINK-34179

NORAD 64103 · 2025-110H

PAYLOAD ACTIVE UNKNOWN

§ Identity

Operator
Country
US
Launch date
2025-05-23
Launch site
AFWTR
Launch vehicle
Mass (kg)
RCS (m²)

Purposes: comms

External: N2YO · Heavens-Above · Gunter

§ Orbital elements

Epoch: 2026-05-24T22:45:35.248032Z

Period
94.11 min
Inclination
53.1619°
Eccentricity
0.0001560
Mean motion
15.30187256 rev/d
Perigee alt
474.2 km
Apogee alt
476.3 km
Semi-major
6,853.4 km
B*
8.1664e-4
RAAN
32.8616°
Arg perigee
340.1232°
Mean anomaly
19.9708°
Rev number
5,755

§ Raw data

STARLINK-341791 64103U 25110H   26144.94832463  .00023896  00000+0  81664-3 0  99942 64103  53.1619  32.8616 0001560 340.1232  19.9708 15.30187256 57558

JSON: /api/v1/satellites/64103 · /tle

For live sub-satellite position, see the globe view (requires WebGL).

§ Visibility from observer

Set your observer location to see the next 7 days of passes ≥ 10°. The values pass through the URL so the page stays shareable.

No JS? Fill the form by hand. The geolocation button needs JavaScript.